Location: Brahman Valley
(40.6513°N, 111.8855°W)
Time: 02:31:47
(UTC+00:00)

SR - Visible Passes

Search period start: 12 May 2021 00:00
Search period end: 22 May 2021 00:00
Orbit: 573 x 882 km, 66.7° (Epoch: 11 May)

Date Brightness Start Highest point End Pass type
(mag) Time Alt. Az. Time Alt. Az. Time Alt. Az.
12 May ? 08:35:28 38° ESE 08:35:28 38° ESE 08:40:45 10° NE visible
12 May ? 10:14:51 25° W 10:17:26 37° NW 10:22:56 10° NNE visible
13 May ? 07:46:55 19° E 07:46:55 19° E 07:50:00 10° ENE visible
13 May ? 09:26:18 54° WSW 09:27:25 66° WNW 09:33:22 10° NNE visible
13 May ? 11:07:31 10° WNW 11:10:42 15° NW 11:13:55 10° N visible
14 May ? 08:37:42 68° ESE 08:37:42 68° ESE 08:43:32 10° NE visible
14 May ? 10:17:05 15° W 10:20:17 23° NW 10:24:59 10° N visible
15 May ? 07:49:03 33° E 07:49:03 33° E 07:53:21 10° NE visible
15 May ? 09:28:26 33° W 09:30:04 39° NW 09:35:38 10° NNE visible
16 May ? 07:00:22 16° E 07:00:22 16° E 07:02:30 10° ENE visible
16 May ? 08:39:45 68° W 08:40:05 70° WNW 08:46:02 10° NNE visible
16 May ? 10:19:55 10° WNW 10:23:17 15° NW 10:26:42 10° N visible
17 May ? 07:51:01 59° ENE 07:51:01 59° ENE 07:56:11 10° NE visible
17 May ? 09:30:23 19° W 09:32:54 25° NW 09:37:42 10° N visible
18 May ? 07:02:14 29° E 07:02:14 29° E 07:05:57 10° NE visible
18 May ? 08:41:37 38° W 08:42:43 41° NW 08:48:20 10° NNE visible
19 May ? 06:13:24 14° E 06:13:24 14° E 06:14:59 10° ENE visible
19 May ? 07:52:47 74° NW 07:52:47 74° NW 07:58:42 10° NNE visible
19 May ? 09:32:19 10° WNW 09:35:53 16° NW 09:39:28 10° N visible
20 May ? 07:03:54 53° ENE 07:03:54 53° ENE 07:08:50 10° NE visible
20 May ? 08:43:15 21° W 08:45:31 26° NW 08:50:25 10° N visible
21 May ? 06:14:57 27° E 06:14:57 27° E 06:18:33 10° NE visible
21 May ? 07:54:18 40° W 07:55:20 44° NW 08:01:01 10° NNE visible
21 May ? 09:37:56 10° NW 09:39:03 10° NNW 09:40:08 10° NNW visible
